Grand Junction, CO

9:15 AM MDT on April 25, 2018 (GMT -0600)
Walker

Weather History for KGJT - June, 2014

Change the Weather History Date:

Tuesday, June 3, 2014

  Actual Average Record
Temperature  
Mean Temperature 74 °F 68 °F  
Max Temperature 89 °F 83 °F 96 °F (1977)
Min Temperature 58 °F 52 °F 40 °F (1943)
Degree Days  
Heating Degree Days 0 2  
Month to date heating degree days 0 6  
Since 1 June heating degree days 0 6  
Since 1 July heating degree days 6250 5595  
Cooling Degree Days 9 4  
Month to date cooling degree days 18 12  
Year to date cooling degree days 77 63  
Since 1 June cooling degree days 18 12  
Growing Degree Days 26 (Base 50)    
Moisture  
Dew Point 16 °F    
Average Humidity 12    
Maximum Humidity 19    
Minimum Humidity 4    
Precipitation  
Precipitation 0.00 in 0.02 in 0.45 in (1944)
Month to date precipitation 0.00 0.06  
Year to date precipitation 3.78 3.89  
Snow  
Snow 0.00 in 0.00 in 0.00 in (2002)
Month to date snowfall 0.0 0.0  
Since 1 June snowfall 0.0 0.0  
Since 1 July snowfall 25.7 19.1  
Snow Depth 0.00 in    
Sea Level Pressure  
Sea Level Pressure 29.69 in    
Wind  
Wind Speed 12 mph (NE)    
Max Wind Speed 25 mph    
Max Gust Speed 31 mph    
Visibility 10 miles    
Events      
T = Trace of Precipitation, MM = Missing Value Source: NWS Daily Summary

Daily Weather History Graph

Daily Weather History Graph

Search for Another Location

Airport or City:

Astronomy

Jun. 03, 2014 Rise Set
Actual Time 5:49 AM MDT 8:35 PM MDT
Civil Twilight 5:17 AM MDT 9:07 PM MDT
Nautical Twilight 4:37 AM MDT 9:47 PM MDT
Astronomical Twilight 3:52 AM MDT 10:32 PM MDT
Moon 11:13 AM MDT (6/3) 12:06 AM MDT (6/3)
Length of Visible Light 15h 49m
Length of Day
14h 46m
Waxing Crescent, 30% of the Moon is Illuminated
Jun 3
Waxing Crescent
Jun 5
First Quarter
Jun 12
Full
Jun 19
Last Quarter
Jun 27
New

Hourly Weather History & Observations

Time (MDT) Temp. Dew Point Humidity Pressure Visibility Wind Dir Wind Speed Gust Speed Precip Events Conditions
12:53 AM 73.0 °F 17.1 °F 12% 29.64 in 10.0 mi ESE 18.4 mph - N/A   Clear
1:53 AM 68.0 °F 21.9 °F 17% 29.62 in 10.0 mi East 19.6 mph 24.2 mph N/A   Clear
2:53 AM 70.0 °F 19.9 °F 15% 29.61 in 10.0 mi ESE 18.4 mph 27.6 mph N/A   Clear
3:53 AM 68.0 °F 21.9 °F 17% 29.62 in 10.0 mi ESE 12.7 mph - N/A   Clear
4:53 AM 69.1 °F 19.9 °F 15% 29.64 in 10.0 mi ESE 9.2 mph - N/A   Clear
5:53 AM 68.0 °F 21.0 °F 17% 29.66 in 10.0 mi ESE 12.7 mph - N/A   Clear
6:53 AM 68.0 °F 24.1 °F 19% 29.68 in 10.0 mi ESE 11.5 mph - N/A   Clear
7:53 AM 71.1 °F 25.0 °F 18% 29.68 in 10.0 mi ESE 13.8 mph - N/A   Clear
8:53 AM 75.9 °F 27.0 °F 16% 29.70 in 10.0 mi SE 16.1 mph - N/A   Clear
9:53 AM 79.0 °F 28.0 °F 15% 29.71 in 10.0 mi NW 15.0 mph - N/A   Clear
10:53 AM 82.0 °F 23.0 °F 11% 29.70 in 10.0 mi NW 8.1 mph - N/A   Clear
11:53 AM 84.0 °F 18.0 °F 9% 29.69 in 10.0 mi WNW 11.5 mph 24.2 mph N/A   Clear
12:53 PM 84.9 °F 16.0 °F 8% 29.68 in 10.0 mi West 11.5 mph 19.6 mph N/A   Clear
1:53 PM 87.1 °F 5.0 °F 4% 29.67 in 10.0 mi West 12.7 mph 28.8 mph N/A   Clear
2:53 PM 87.1 °F 7.0 °F 5% 29.65 in 10.0 mi West 20.7 mph 29.9 mph N/A   Clear
3:53 PM 87.1 °F 6.1 °F 5% 29.65 in 10.0 mi WNW 18.4 mph 27.6 mph N/A   Clear
4:53 PM 86.0 °F 3.0 °F 4% 29.64 in 10.0 mi WNW 17.3 mph 31.1 mph N/A   Clear
5:53 PM 86.0 °F 5.0 °F 5% 29.65 in 10.0 mi WNW 17.3 mph 26.5 mph N/A   Clear
6:53 PM 84.0 °F 9.0 °F 6% 29.66 in 10.0 mi West 13.8 mph 21.9 mph N/A   Clear
7:53 PM 79.0 °F 15.1 °F 9% 29.68 in 10.0 mi WNW 5.8 mph - N/A   Clear
8:53 PM 69.8 °F 14.0 °F 12% 29.90 in 10.0 mi NE 5.8 mph - N/A   Clear
9:53 PM 66.0 °F 10.0 °F 11% 29.72 in 10.0 mi ENE 5.8 mph - N/A   Clear
10:53 PM 64.4 °F 12.2 °F 13% 29.93 in 10.0 mi East 6.9 mph - N/A   Clear
11:53 PM 62.6 °F 12.2 °F 14% 29.94 in 10.0 mi ESE 6.9 mph - N/A   Clear